FW0394 Weather Reports


Display with metric or nautical units.
time (UTC)temp
F
wind
direction
speed
MPH
gust
MPH
rain 1hr
in
rain 24hr
in
rain mn
in
humidity
%
barometer
mb
20220705062505 83 180 1.0 7.0 0.00 0.35 0.00 70 1010.8
20220705062009 83 219 1.0 7.0 0.00 0.35 0.00 69 1010.8
20220705061506 83 207 2.0 8.0 0.00 0.35 0.00 69 1010.8
20220705061010 83 191 1.0 8.0 0.00 0.35 0.00 69 1010.8
20220705060511 83 200 2.0 7.0 0.00 0.35 0.00 69 1010.8
20220705060006 83 192 1.0 7.0 0.00 0.35 0.00 68 1010.8
20220705055509 84 198 6.0 9.0 0.00 0.35 0.00 68 1010.8
20220705055004 84 144 5.0 9.0 0.00 0.35 0.00 68 1010.8
20220705054505 84 241 2.0 10.0 0.00 0.35 0.00 68 1010.8
20220705054007 84 197 4.0 10.0 0.00 0.35 0.00 67 1010.5
20220705053504 84 218 7.0 7.0 0.00 0.35 0.00 67 1010.5
20220705053006 84 212 1.0 7.0 0.00 0.35 0.00 67 1010.5
20220705052510 84 216 1.0 6.0 0.00 0.35 0.00 67 1010.5
20220705052004 84 199 4.0 8.0 0.00 0.35 0.00 66 1010.5
20220705051511 85 178 3.0 8.0 0.00 0.35 0.00 66 1010.5
20220705051007 85 205 1.0 10.0 0.00 0.35 0.00 66 1010.5
20220705050504 85 146 2.0 10.0 0.00 0.35 0.00 66 1010.5
20220705050004 85 186 2.0 10.0 0.00 0.35 0.35 65 1010.1
20220705045509 85 207 1.0 10.0 0.00 0.35 0.35 65 1010.1
20220705045006 85 140 4.0 9.0 0.00 0.35 0.35 65 1010.1
20220705044509 85 130 1.0 8.0 0.00 0.35 0.35 65 1010.1
20220705044005 85 249 2.0 9.0 0.00 0.35 0.35 65 1010.1
20220705043509 85 189 3.0 9.0 0.00 0.35 0.35 65 1010.1
20220705043006 85 180 3.0 7.0 0.00 0.35 0.35 65 1010.1
20220705042509 85 152 2.0 8.0 0.00 0.35 0.35 65 1010.1
20220705042005 85 186 6.0 8.0 0.00 0.35 0.35 65 1010.1
20220705041505 85 175 2.0 6.0 0.00 0.35 0.35 65 1010.1
20220705041009 86 173 2.0 7.0 0.00 0.35 0.35 65 1010.1
20220705040506 86 119 3.0 8.0 0.00 0.35 0.35 65 1010.1
20220705040009 86 202 1.0 9.0 0.00 0.35 0.35 64 1009.8
20220705035508 86 177 6.0 9.0 0.00 0.35 0.35 64 1009.8
20220705035006 86 201 8.0 9.0 0.00 0.35 0.35 64 1009.8
20220705034509 86 210 4.0 7.0 0.00 0.35 0.35 64 1009.8
20220705034004 86 184 4.0 8.0 0.00 0.35 0.35 64 1009.5
20220705033507 86 221 4.0 11.0 0.00 0.35 0.35 63 1009.5
20220705033010 87 204 3.0 11.0 0.00 0.35 0.35 63 1009.5
20220705032510 87 138 2.0 8.0 0.00 0.35 0.35 63 1009.5
20220705032010 87 151 8.0 8.0 0.00 0.35 0.35 63 1009.5
20220705031513 87 219 3.0 7.0 0.00 0.35 0.35 62 1009.5
20220705031004 87 187 1.0 8.0 0.00 0.35 0.35 62 1009.5
20220705030508 87 175 1.0 8.0 0.00 0.35 0.35 62 1009.5
20220705030007 87 183 3.0 8.0 0.00 0.35 0.35 62 1009.1
20220705025505 88 191 6.0 7.0 0.00 0.35 0.35 61 1009.1
20220705025006 88 174 2.0 7.0 0.00 0.35 0.35 60 1009.1
20220705024507 88 208 3.0 7.0 0.00 0.35 0.35 60 1009.1
20220705024009 88 178 3.0 7.0 0.00 0.35 0.35 59 1009.1
20220705023508 89 145 5.0 6.0 0.00 0.35 0.35 59 1009.1
20220705023003 89 173 2.0 8.0 0.00 0.35 0.35 58 1009.1
20220705022503 89 180 2.0 8.0 0.00 0.35 0.35 58 1009.1
20220705022009 89 196 4.0 8.0 0.00 0.35 0.35 58 1009.1
20220705021506 89 165 2.0 9.0 0.00 0.35 0.35 58 1009.1
20220705021013 90 199 4.0 11.0 0.00 0.35 0.35 57 1009.1
20220705020506 90 198 3.0 11.0 0.00 0.35 0.35 57 1009.1
20220705020009 90 165 4.0 11.0 0.00 0.35 0.35 57 1008.8
20220705015507 90 192 5.0 9.0 0.00 0.35 0.35 57 1008.8
20220705015004 91 166 3.0 10.0 0.00 0.35 0.35 56 1008.8
20220705014505 91 194 3.0 10.0 0.00 0.35 0.35 56 1008.8
20220705014009 91 126 3.0 8.0 0.00 0.35 0.35 56 1008.8
20220705013505 91 192 2.0 8.0 0.00 0.35 0.35 55 1008.8
20220705013007 91 179 3.0 9.0 0.00 0.35 0.35 55 1008.8
20220705012504 92 205 6.0 10.0 0.00 0.35 0.35 54 1008.8
20220705012005 92 123 3.0 12.0 0.00 0.35 0.35 54 1008.8
20220705011506 92 143 2.0 18.0 0.00 0.35 0.35 54 1008.8
20220705011009 92 196 8.0 18.0 0.00 0.35 0.35 53 1008.8
20220705010508 92 205 4.0 12.0 0.00 0.35 0.35 53 1008.8
20220705010007 93 198 3.0 12.0 0.00 0.35 0.35 53 1008.4
20220705005503 93 159 5.0 10.0 0.00 0.35 0.35 53 1008.4
20220705005006 93 191 7.0 14.0 0.00 0.35 0.35 52 1008.4
20220705004509 93 0 0.0 14.0 0.00 0.35 0.35 52 1008.4
20220705004006 93 196 2.0 14.0 0.00 0.35 0.35 52 1008.8
20220705003506 94 228 3.0 15.0 0.00 0.35 0.35 51 1008.8
20220705003004 94 186 4.0 15.0 0.00 0.35 0.35 51 1008.8
20220705002508 94 138 4.0 13.0 0.00 0.35 0.35 51 1008.8
20220705002011 94 147 5.0 11.0 0.00 0.35 0.35 50 1008.4
20220705001504 94 190 3.0 14.0 0.00 0.35 0.35 49 1008.4
20220705001008 95 246 3.0 15.0 0.00 0.35 0.35 49 1008.4
20220705000510 95 211 3.0 15.0 0.00 0.35 0.35 48 1008.4
20220705000004 95 208 2.0 14.0 0.00 0.35 0.35 50 1008.4
20220704235507 95 203 4.0 14.0 0.00 0.35 0.35 50 1008.4
20220704235007 95 258 4.0 14.0 0.00 0.35 0.35 50 1008.4
20220704234504 95 218 8.0 12.0 0.00 0.35 0.35 49 1008.4
20220704234006 96 221 3.0 17.0 0.00 0.35 0.35 48 1008.4
20220704233507 96 231 5.0 17.0 0.00 0.35 0.35 49 1008.4
20220704233004 96 192 6.0 16.0 0.00 0.35 0.35 48 1008.4
20220704232507 96 190 5.0 20.0 0.00 0.35 0.35 48 1008.4
20220704232004 96 195 7.0 20.0 0.00 0.35 0.35 46 1008.4
20220704231509 96 261 2.0 15.0 0.00 0.35 0.35 46 1008.4
20220704231010 96 212 9.0 15.0 0.00 0.35 0.35 45 1008.4
20220704230503 96 200 7.0 15.0 0.00 0.35 0.35 46 1008.4
20220704230003 96 221 9.0 16.0 0.00 0.35 0.35 47 1008.8
20220704225507 96 277 4.0 18.0 0.00 0.35 0.35 46 1008.8
20220704225006 97 200 8.0 18.0 0.00 0.35 0.35 47 1008.8
20220704224509 97 194 9.0 21.0 0.00 0.35 0.35 47 1008.8
20220704224011 97 215 5.0 21.0 0.00 0.35 0.35 46 1008.8
20220704223504 97 209 5.0 18.0 0.00 0.35 0.35 48 1008.8
20220704223003 97 248 7.0 17.0 0.00 0.35 0.35 47 1008.8
20220704222504 97 173 3.0 17.0 0.00 0.35 0.35 47 1008.8
20220704222007 97 275 3.0 16.0 0.00 0.35 0.35 46 1008.8
20220704221505 97 189 12.0 15.0 0.00 0.35 0.35 46 1008.8
20220704221008 97 162 10.0 15.0 0.00 0.35 0.35 47 1008.8
20220704220507 97 183 6.0 18.0 0.00 0.35 0.35 48 1008.8
20220704220004 97 215 7.0 20.0 0.00 0.35 0.35 46 1008.8
20220704215508 97 208 3.0 20.0 0.00 0.35 0.35 47 1008.8
20220704215006 97 232 4.0 19.0 0.00 0.35 0.35 48 1008.8
20220704214510 97 275 8.0 19.0 0.00 0.35 0.35 47 1008.8
20220704214012 97 252 9.0 19.0 0.00 0.35 0.35 47 1008.8
20220704213505 97 276 6.0 19.0 0.00 0.35 0.35 48 1008.8
20220704213009 97 142 8.0 19.0 0.00 0.35 0.35 48 1008.8
20220704212506 97 169 12.0 23.0 0.00 0.35 0.35 48 1008.8
20220704212006 97 219 11.0 23.0 0.00 0.35 0.35 46 1008.8
20220704211503 97 236 4.0 16.0 0.00 0.35 0.35 48 1008.8
20220704211007 96 188 9.0 21.0 0.00 0.35 0.35 47 1008.8
20220704210505 96 209 5.0 21.0 0.00 0.35 0.35 46 1008.8
20220704205507 96 198 9.0 25.0 0.00 0.35 0.35 46 1008.8
20220704205005 96 238 8.0 17.0 0.00 0.35 0.35 47 1008.8
20220704204509 96 182 8.0 18.0 0.00 0.35 0.35 48 1008.8
20220704204006 96 240 8.0 25.0 0.00 0.35 0.35 49 1009.1
20220704203508 96 191 9.0 25.0 0.00 0.35 0.35 48 1009.1
20220704203009 96 207 10.0 18.0 0.00 0.35 0.35 48 1009.1
20220704202504 96 198 7.0 14.0 0.00 0.35 0.35 48 1009.1
20220704202006 96 225 7.0 18.0 0.00 0.35 0.35 49 1008.8
20220704201507 96 192 11.0 19.0 0.00 0.35 0.35 48 1008.8
20220704201004 96 167 9.0 19.0 0.00 0.35 0.35 49 1008.8
20220704200509 96 251 4.0 20.0 0.00 0.35 0.35 51 1008.8
20220704200005 96 193 6.0 20.0 0.00 0.35 0.35 49 1009.5
20220704195503 95 153 9.0 17.0 0.00 0.35 0.35 52 1009.5
20220704195006 95 184 6.0 16.0 0.00 0.35 0.35 50 1009.5
20220704194504 95 208 11.0 19.0 0.00 0.35 0.35 52 1009.5
20220704194007 95 182 5.0 19.0 0.00 0.35 0.35 50 1009.5
20220704193504 95 194 4.0 18.0 0.00 0.35 0.35 51 1009.5
20220704193011 95 152 3.0 18.0 0.00 0.35 0.35 51 1009.5
20220704192503 95 184 4.0 15.0 0.00 0.35 0.35 51 1009.5
20220704192009 95 226 2.0 16.0 0.00 0.35 0.35 53 1009.5
20220704191506 94 225 6.0 20.0 0.00 0.35 0.35 54 1009.5
20220704191009 94 250 8.0 20.0 0.00 0.35 0.35 54 1009.5
20220704190505 94 162 7.0 20.0 0.00 0.35 0.35 50 1009.5
20220704190006 94 180 10.0 20.0 0.00 0.35 0.35 53 1009.5
20220704185509 93 179 12.0 17.0 0.00 0.35 0.35 52 1009.5
20220704185003 93 243 9.0 20.0 0.00 0.35 0.35 53 1009.5
20220704184503 93 267 10.0 20.0 0.00 0.35 0.35 52 1009.5
20220704184005 93 210 4.0 19.0 0.00 0.35 0.35 52 1009.8
20220704183507 93 194 8.0 17.0 0.00 0.35 0.35 55 1009.8
20220704183009 93 211 7.0 17.0 0.00 0.35 0.35 55 1009.8
20220704182506 92 171 6.0 15.0 0.00 0.35 0.35 55 1009.8
20220704182010 92 201 5.0 18.0 0.00 0.35 0.35 57 1010.1
20220704181510 92 173 8.0 18.0 0.00 0.35 0.35 57 1010.1
20220704181003 91 212 3.0 17.0 0.00 0.35 0.35 57 1010.1
20220704180507 91 187 12.0 16.0 0.00 0.35 0.35 58 1010.1
20220704180003 91 219 6.0 14.0 0.00 0.35 0.35 58 1010.1
20220704175506 91 196 9.0 14.0 0.00 0.35 0.35 60 1010.1
20220704175006 91 220 8.0 16.0 0.00 0.35 0.35 58 1010.1
20220704174509 90 147 6.0 16.0 0.00 0.35 0.35 59 1010.1
20220704174008 90 115 6.0 16.0 0.00 0.35 0.35 60 1010.1
20220704173509 90 242 11.0 15.0 0.00 0.35 0.35 59 1010.1
20220704173006 90 182 12.0 15.0 0.00 0.35 0.35 61 1010.1
20220704172506 90 218 5.0 16.0 0.00 0.35 0.35 62 1010.1
20220704172009 90 229 5.0 16.0 0.00 0.35 0.35 60 1010.1
20220704171508 89 211 5.0 16.0 0.00 0.35 0.35 63 1010.1
20220704171007 89 211 1.0 16.0 0.00 0.35 0.35 63 1010.1
20220704170503 89 206 5.0 16.0 0.00 0.35 0.35 63 1010.1
20220704170006 88 230 5.0 17.0 0.00 0.35 0.35 63 1010.1
20220704165508 88 167 6.0 17.0 0.00 0.35 0.35 63 1010.1
20220704165007 88 249 13.0 20.0 0.00 0.35 0.35 64 1010.1
20220704164503 87 142 5.0 22.0 0.00 0.35 0.35 64 1010.1
20220704164007 87 241 5.0 22.0 0.00 0.35 0.35 66 1010.5
20220704163503 87 113 9.0 21.0 0.00 0.35 0.35 66 1010.5
20220704163008 86 176 4.0 16.0 0.00 0.35 0.35 68 1010.5
20220704162505 86 237 6.0 20.0 0.00 0.35 0.35 67 1010.5
20220704162006 86 208 7.0 20.0 0.00 0.35 0.35 68 1010.5
20220704161508 86 211 2.0 14.0 0.00 0.35 0.35 72 1010.5
20220704161004 85 142 9.0 14.0 0.00 0.35 0.35 70 1010.5
20220704160507 85 171 14.0 14.0 0.00 0.35 0.35 73 1010.5
20220704160003 84 216 8.0 17.0 0.00 0.34 0.34 72 1010.1
20220704155507 84 197 7.0 17.0 0.00 0.34 0.34 73 1010.1
20220704155005 83 182 3.0 23.0 0.00 0.34 0.34 77 1010.1
20220704154508 82 184 10.0 23.0 0.00 0.34 0.34 78 1010.1
20220704154003 81 178 6.0 16.0 0.00 0.34 0.34 80 1010.5
20220704153506 81 180 8.0 16.0 0.00 0.34 0.34 83 1010.5
20220704153009 80 211 6.0 12.0 0.00 0.34 0.34 85 1010.5
20220704152506 79 142 2.0 11.0 0.00 0.34 0.34 87 1010.5
20220704152009 79 185 5.0 13.0 0.00 0.34 0.34 88 1010.8
20220704151507 78 221 4.0 14.0 0.00 0.34 0.34 88 1010.8
20220704151003 78 218 3.0 14.0 0.00 0.34 0.34 89 1010.8
20220704150506 77 161 6.0 14.0 0.00 0.34 0.34 91 1010.8
20220704150009 77 0 0.0 13.0 0.00 0.34 0.34 92 1011.1
20220704145507 77 150 2.0 12.0 0.00 0.34 0.34 92 1011.1
20220704145005 76 155 3.0 12.0 0.00 0.34 0.34 93 1011.1
20220704144510 76 169 5.0 13.0 0.00 0.34 0.34 93 1011.1
20220704144007 76 155 2.0 13.0 0.00 0.34 0.34 93 1011.1
20220704143509 76 200 4.0 12.0 0.00 0.34 0.34 94 1011.1
20220704143006 75 182 4.0 12.0 0.00 0.34 0.34 94 1011.1
20220704142504 75 190 1.0 14.0 0.00 0.34 0.34 94 1011.1
20220704142006 75 0 0.0 14.0 0.00 0.34 0.34 95 1011.5
20220704141508 75 165 4.0 12.0 0.00 0.34 0.34 95 1011.5
20220704141005 75 84 4.0 12.0 0.00 0.34 0.34 95 1011.5
20220704140508 74 126 1.0 14.0 0.00 0.34 0.34 95 1011.5
20220704140008 74 142 6.0 14.0 0.00 0.34 0.34 95 1012.2
20220704135505 74 146 5.0 12.0 0.00 0.34 0.34 95 1012.2
20220704135007 74 137 3.0 12.0 0.00 0.34 0.34 95 1012.2
20220704134509 74 148 6.0 9.0 0.00 0.34 0.34 95 1012.2
20220704134010 74 137 5.0 12.0 0.00 0.34 0.34 95 1012.2
20220704133507 74 0 0.0 12.0 0.00 0.34 0.34 95 1012.2
20220704133004 74 157 5.0 9.0 0.00 0.34 0.34 95 1012.2
20220704132507 73 151 4.0 8.0 0.00 0.34 0.34 95 1012.2
20220704132007 73 179 6.0 8.0 0.00 0.34 0.34 95 1011.8
20220704131503 73 111 4.0 8.0 0.04 0.34 0.34 95 1011.8
20220704131007 73 167 1.0 8.0 0.04 0.34 0.34 95 1011.8
20220704130508 73 169 4.0 10.0 0.04 0.34 0.34 95 1011.8
20220704130008 73 173 3.0 10.0 0.04 0.33 0.33 95 1012.2
20220704125504 73 130 1.0 8.0 0.04 0.33 0.33 95 1012.2
20220704125005 73 146 2.0 8.0 0.04 0.33 0.33 95 1012.2
20220704124510 73 142 3.0 8.0 0.04 0.33 0.33 95 1012.2
20220704124004 73 155 4.0 10.0 0.06 0.32 0.32 95 1012.5
20220704123506 73 150 5.0 11.0 0.07 0.32 0.32 95 1012.5
20220704123006 73 121 4.0 11.0 0.00 0.31 0.31 95 1012.5
20220704122506 73 144 3.0 11.0 0.00 0.31 0.31 95 1012.5
20220704122004 73 165 6.0 11.0 0.00 0.30 0.30 95 1012.5
20220704121504 73 177 4.0 7.0 0.00 0.30 0.30 95 1012.5
20220704121007 73 120 4.0 7.0 0.00 0.30 0.30 95 1012.5
20220704120508 73 0 0.0 5.0 0.00 0.30 0.30 95 1012.5
20220704120006 73 171 1.0 5.0 0.00 0.30 0.30 95 1011.8
20220704115505 73 169 1.0 6.0 0.00 0.30 0.30 94 1011.8
20220704115008 73 0 0.0 6.0 0.04 0.30 0.30 94 1011.8
20220704114506 73 144 2.0 5.0 0.04 0.30 0.30 94 1011.8
20220704114003 73 158 1.0 7.0 0.04 0.30 0.30 94 1012.2
20220704113507 73 0 0.0 8.0 0.04 0.30 0.30 94 1012.2
20220704113008 73 157 1.0 8.0 0.04 0.29 0.29 94 1012.2
20220704112508 73 120 2.0 5.0 0.04 0.29 0.29 94 1012.2
20220704112006 73 132 1.0 11.0 0.04 0.29 0.29 94 1012.5
20220704111510 73 113 2.0 11.0 0.05 0.28 0.28 94 1012.5
20220704111006 73 119 5.0 9.0 0.05 0.28 0.28 94 1012.5
20220704110508 73 107 4.0 9.0 0.05 0.28 0.28 94 1012.5
20220704110004 73 157 5.0 8.0 0.06 0.27 0.27 94 1013.5
20220704105506 73 118 4.0 7.0 0.08 0.27 0.27 94 1013.5
20220704105008 73 149 4.0 4.0 0.08 0.26 0.26 94 1013.5
20220704104506 73 146 2.0 3.0 0.11 0.26 0.26 94 1013.5
20220704104007 73 0 0.0 0.0 0.10 0.25 0.25 94 1013.5
20220704103509 73 0 0.0 1.0 0.00 0.24 0.24 94 1013.5
20220704103007 73 0 0.0 1.0 0.00 0.23 0.23 94 1013.5
20220704102506 73 0 0.0 3.0 0.00 0.23 0.23 94 1013.5
20220704102003 73 0 0.0 4.0 0.00 0.23 0.23 94 1012.8
20220704101504 73 0 0.0 5.0 0.00 0.23 0.23 94 1012.8
20220704101003 73 143 5.0 9.0 0.00 0.23 0.23 94 1012.8
20220704100507 73 150 1.0 9.0 0.00 0.23 0.23 94 1012.8
20220704100004 73 120 3.0 8.0 0.00 0.22 0.22 93 1013.2
20220704095507 73 154 2.0 7.0 0.00 0.22 0.22 94 1013.2
20220704095005 74 0 0.0 6.0 0.00 0.22 0.22 93 1013.2
20220704094503 74 118 1.0 5.0 0.00 0.22 0.22 93 1013.2
20220704094008 74 0 0.0 4.0 0.00 0.22 0.22 94 1013.2
20220704093507 75 148 1.0 7.0 0.00 0.22 0.22 93 1013.2
20220704093006 75 118 1.0 7.0 0.00 0.22 0.22 93 1013.2
20220704092504 75 0 0.0 0.0 0.00 0.22 0.22 94 1013.2
20220704092007 75 0 0.0 0.0 0.00 0.22 0.22 94 1013.2
20220704091506 75 0 0.0 0.0 0.00 0.21 0.21 94 1013.2
20220704091006 75 0 0.0 0.0 0.00 0.21 0.21 94 1013.2
20220704090506 75 0 0.0 0.0 0.00 0.21 0.21 93 1013.2
20220704090009 75 0 0.0 4.0 0.00 0.21 0.21 93 1013.2
20220704085507 75 0 0.0 4.0 0.00 0.21 0.21 93 1013.2
20220704085007 75 0 0.0 0.0 0.00 0.20 0.20 93 1013.2
20220704084506 74 0 0.0 2.0 0.00 0.20 0.20 92 1013.2
20220704084007 74 0 0.0 2.0 0.00 0.20 0.20 92 1013.5
20220704083506 74 0 0.0 1.0 0.00 0.20 0.20 92 1013.5
20220704083008 74 0 0.0 1.0 0.00 0.20 0.20 92 1013.5
20220704082504 74 0 0.0 2.0 0.00 0.20 0.20 91 1013.5
20220704082007 75 0 0.0 2.0 0.00 0.20 0.20 90 1013.5
20220704081509 75 0 0.0 3.0 0.00 0.19 0.19 90 1013.5
20220704081006 76 0 0.0 4.0 0.04 0.19 0.19 90 1013.5
20220704080507 76 312 1.0 4.0 0.07 0.19 0.19 90 1013.5
20220704080008 76 0 0.0 5.0 0.16 0.19 0.19 89 1013.5
20220704075506 76 159 1.0 18.0 0.55 0.18 0.18 88 1013.5
20220704075006 78 192 5.0 18.0 0.76 0.13 0.13 88 1013.5
20220704074507 78 270 3.0 15.0 1.15 0.05 0.05 88 1013.5
20220704074011 78 216 4.0 9.0 0.00 0.00 0.00 88 1013.5
20220704073505 78 193 3.0 9.0 0.00 0.00 0.00 87 1013.5
20220704073008 78 0 0.0 8.0 0.00 0.00 0.00 87 1013.5
20220704072505 78 189 4.0 9.0 0.00 0.00 0.00 87 1013.5
20220704072005 78 200 3.0 9.0 0.00 0.00 0.00 87 1013.2
20220704071508 78 184 8.0 9.0 0.00 0.00 0.00 87 1013.2
20220704071006 78 171 6.0 11.0 0.00 0.00 0.00 87 1013.2
20220704070504 78 114 4.0 12.0 0.00 0.00 0.00 87 1013.2
20220704070011 78 205 5.0 12.0 0.00 0.00 0.00 87 1013.2
20220704065509 78 147 3.0 11.0 0.00 0.00 0.00 87 1013.2
20220704065009 78 127 5.0 12.0 0.00 0.00 0.00 87 1013.2
20220704064506 78 166 5.0 12.0 0.00 0.00 0.00 87 1013.2
20220704064008 78 126 5.0 11.0 0.00 0.00 0.00 87 1013.2
20220704063507 78 142 5.0 11.0 0.00 0.00 0.00 86 1013.2
20220704063007 78 169 4.0 8.0 0.00 0.00 0.00 86 1013.2